RH
15 16 17 17 18 20 21 22 22 21 20 19 18 18 18 18 17 16 15 14 13 12 11 10 10 9 10 10 10 10 10 9 9 8 8 7 5 4 5 7 10 10 10
17 17 18 18 20 21 22 24 25 24 23 22 22 22 21 20 18 16 15 14 14 13 12 12 12 12 13 13 12 12 12 11 10 9 8 8 6 6 5 4 4 5 8
18 18 19 20 22 25 27 29 30 29 26 26 27 26 24 22 19 18 17 16 15 15 15 15 16 15 15 14 14 14 13 11 10 8 7 6 6 6 4 4 3 3 3
21 22 24 25 28 30 31 33 33 30 31 33 31 29 26 24 21 19 18 18 17 18 19 19 18 18 18 17 16 16 14 11 9 8 6 6 5 5 6 4 3 2 3
28 24 27 32 35 39 39 38 38 39 39 36 34 31 27 24 22 21 21 22 23 24 22 21 21 21 21 21 20 18 14 9 8 7 6 6 5 5 5 5 4 3 2
34 30 29 32 38 43 45 46 46 44 41 39 34 29 26 25 25 27 29 30 30 29 28 28 29 28 27 25 21 14 11 9 9 8 8 7 6 6 5 4 4 4 3
31 27 26 31 41 49 52 52 50 47 42 36 31 29 29 30 32 34 36 37 38 38 37 36 34 33 31 25 18 18 18 18 16 15 12 10 9 8 7 5 4 4 4
35 26 30 43 54 59 60 58 52 45 38 34 33 34 37 40 42 43 44 43 42 41 40 40 39 36 28 28 29 29 27 25 27 24 21 19 16 13 10 7 6 4 4
34 31 35 43 56 60 61 56 46 38 36 37 39 43 46 48 50 51 51 49 46 44 43 36 28 28 33 41 45 41 37 39 39 33 29 27 21 12 9 8 7 6 5
35 34 37 49 61 62 57 46 39 37 42 48 53 57 58 57 56 56 55 52 47 37 28 30 31 31 33 38 43 45 43 42 52 46 40 36 26 10 6 7 8 6 6
35 36 41 49 57 56 47 42 43 49 56 62 65 67 68 67 64 58 48 38 33 34 34 35 35 33 30 29 35 46 52 56 61 61 55 50 35 12 7 8 9 9 10
44 45 53 58 54 47 48 53 63 67 70 76 77 75 72 62 49 38 38 38 41 44 40 34 31 30 30 31 33 43 43 41 41 52 63 62 48 19 10 10 12 13 15
48 52 54 50 51 58 64 70 80 89 88 84 78 66 50 41 38 43 48 47 43 41 37 32 29 28 29 36 47 49 42 47 58 69 76 72 52 26 13 13 13 13 14
49 48 52 59 69 78 94 97 95 90 78 61 46 38 37 41 47 52 52 48 39 32 28 32 35 40 44 52 62 69 73 75 86 92 84 67 46 26 18 17 16 14 12
62 69 89 98 98 97 97 90 70 48 41 38 38 46 52 55 52 48 43 39 35 35 42 42 42 47 53 67 81 88 90 89 89 88 76 56 37 28 27 25 16 14 13
100 99 97 97 96 79 55 48 43 38 32 28 26 30 35 40 38 37 40 42 48 50 48 47 52 57 60 72 88 98 93 89 84 74 58 46 41 37 35 28 27 24 21
96 93 76 62 54 47 42 35 26 19 17 18 23 28 33 36 40 44 44 47 53 56 54 50 53 60 69 77 86 96 96 88 80 67 56 48 44 41 33 27 26 21 21
62 55 45 37 30 24 18 15 15 15 15 16 17 19 25 29 35 41 44 50 58 59 56 53 53 59 72 82 90 94 97 94 89 75 62 54 40 34 34 25 18 17 21
38 29 20 16 17 20 25 28 29 30 29 28 27 22 20 19 21 23 32 45 52 54 56 57 55 56 62 80 90 93 93 88 83 76 64 55 44 31 27 26 25 27 30
21 27 36 38 37 40 42 41 41 43 43 46 46 44 38 30 24 24 26 32 40 46 52 55 59 59 60 67 81 86 86 83 78 69 60 54 41 30 27 32 40 40 32
42 45 44 41 43 49 51 47 51 50 58 58 56 55 54 51 42 30 27 30 32 36 42 50 56 61 65 66 71 76 76 73 68 62 50 42 38 39 41 45 46 42 48
44 48 45 44 45 46 48 46 44 55 56 60 63 66 66 64 59 50 35 30 34 37 38 43 49 58 63 67 69 69 69 67 65 54 50 45 46 46 50 47 67 100 100
68 69 65 60 61 63 62 55 55 53 51 51 58 69 74 73 70 65 56 39 36 40 41 44 44 46 61 66 70 70 69 70 74 70 70 63 59 59 57 52 58 90 100
83 84 81 76 74 77 75 70 65 62 58 54 56 64 73 77 77 78 72 57 41 42 45 46 45 48 53 61 67 71 73 77 78 81 76 85 88 98 97 81 81 85 87
93 94 91 89 86 87 84 85 81 76 67 61 60 63 72 81 84 85 83 76 55 47 44 48 53 53 51 55 67 70 78 86 100 100 98 99 81 64 54 52 54 69 76
97 96 95 93 89 89 89 90 88 84 77 70 65 68 73 81 85 87 90 89 71 51 50 52 54 51 54 55 64 81 99 100 100 100 98 63 58 54 53 58 60 73 90
Wind_Speed
26 26 28 29 30 31 32 32 32 33 33 34 35 35 34 34 34 33 32 32 32 32 32 33 34 35 37 39 40 42 43 45 45 45 43 43 46 46 48 48 49 49 48
28 30 32 33 34 34 34 34 34 34 34 34 34 34 34 34 33 33 33 33 33 33 34 36 39 41 44 46 46 47 47 49 50 48 48 45 40 44 47 50 52 52 52
35 35 35 36 36 36 35 35 34 33 33 33 33 33 33 33 33 34 34 34 35 36 38 40 43 47 49 50 51 52 51 49 47 47 45 44 44 43 39 43 48 52 54
37 38 40 40 38 38 38 36 34 33 33 32 32 32 33 33 33 34 34 36 37 38 41 44 47 50 52 53 55 56 55 52 48 45 42 42 44 43 46 40 40 45 49
40 42 41 40 39 38 36 35 34 33 32 31 31 31 32 32 33 34 35 36 38 41 43 47 50 52 54 55 56 57 56 53 50 48 45 41 41 44 46 49 43 40 42
36 39 42 42 41 39 37 35 33 32 32 32 32 32 33 33 34 36 37 39 41 44 47 50 52 55 56 57 59 57 53 48 46 46 46 46 45 43 47 49 48 46 44
29 32 35 37 38 37 35 34 33 32 32 32 34 34 35 36 37 39 40 42 44 46 50 52 55 58 60 57 51 46 44 44 43 42 43 44 45 47 47 50 52 54 49
31 30 31 33 35 35 33 33 32 32 33 34 34 35 36 38 40 43 44 47 49 52 56 60 61 60 54 48 45 43 42 41 41 40 40 40 41 44 45 47 51 54 54
28 30 32 34 34 34 33 32 33 33 33 34 37 38 41 43 45 47 50 53 56 60 63 62 55 47 45 45 45 43 41 41 41 41 40 39 39 39 39 40 43 49 55
26 29 32 33 33 33 32 33 34 35 36 38 40 42 45 48 51 55 58 62 63 60 54 48 47 45 44 45 46 45 44 44 42 42 42 41 40 40 38 38 39 41 46
22 27 31 33 33 33 33 34 35 37 39 41 44 48 51 55 59 62 61 60 54 51 50 49 48 49 49 49 49 49 48 47 47 47 46 44 44 42 41 41 41 41 43
25 29 31 31 32 33 35 36 38 40 44 48 53 56 59 60 59 56 54 54 51 50 50 50 51 50 49 49 49 48 47 48 48 48 48 45 45 44 43 42 41 42 43
27 29 30 32 34 36 38 40 43 48 53 58 60 58 53 53 53 52 50 50 49 48 48 47 48 48 47 47 48 48 47 47 48 47 47 46 45 44 43 42 41 41 44
30 32 33 36 38 40 43 48 52 55 54 53 50 50 51 52 51 48 47 47 47 46 46 46 45 44 44 44 43 43 43 43 43 42 42 43 43 42 42 41 41 42 45
33 35 37 39 44 49 52 52 48 47 50 52 51 48 48 47 48 48 48 49 48 46 44 43 41 40 40 40 40 41 41 41 41 41 41 41 41 40 40 41 41 43 45
38 42 46 47 46 46 45 46 47 50 54 54 53 53 52 51 51 50 48 45 43 43 42 41 40 39 38 38 38 38 39 39 39 40 40 40 39 39 40 40 40 41 44
38 38 40 42 44 46 50 52 54 54 53 53 50 49 49 50 48 48 47 45 43 43 42 41 40 39 38 37 38 39 40 39 39 39 40 39 38 39 39 39 41 43 44
36 40 43 46 50 54 54 52 49 50 50 49 48 47 48 48 48 48 47 45 44 44 43 41 40 39 37 37 37 39 40 41 40 39 39 40 39 39 40 42 44 45 46
41 47 51 49 46 46 44 46 46 45 46 44 44 44 47 47 47 47 46 46 46 45 44 43 42 41 39 38 38 39 40 40 39 39 40 41 41 40 41 44 46 47 47
44 42 42 44 44 43 44 46 46 46 44 43 44 44 45 45 45 45 45 45 45 45 45 44 43 42 41 38 38 39 40 41 40 39 40 41 41 42 42 43 44 46 46
42 41 42 43 42 41 43 45 45 45 42 45 46 46 44 44 43 43 43 43 43 44 44 43 41 41 39 38 38 38 39 40 39 40 40 40 41 40 41 41 41 42 38
37 36 38 39 38 37 39 41 42 39 43 45 46 45 43 42 43 43 42 41 41 42 41 42 41 38 37 37 37 36 37 37 38 38 39 40 39 39 39 38 35 33 35
38 37 38 38 36 36 37 39 36 38 40 42 43 43 42 41 42 42 41 40 39 40 39 39 39 36 34 35 34 35 35 35 35 35 36 38 38 37 36 34 32 30 35
43 43 43 42 40 39 39 40 38 38 40 41 41 42 42 40 40 40 39 39 38 37 37 37 36 34 33 32 31 32 32 31 31 32 34 33 34 34 35 38 36 38 39
47 46 46 45 44 42 42 39 38 39 40 41 40 39 40 39 39 38 37 37 35 36 36 34 34 33 32 29 30 29 26 23 22 30 27 32 35 37 38 37 37 36 36
48 47 46 45 44 43 42 39 38 38 40 40 38 38 38 37 36 36 35 34 34 33 34 33 32 30 30 28 27 24 22 26 28 30 33 34 35 35 34 34 35 33 34
Wind_Direction
236 241 247 250 253 254 255 256 257 258 260 263 265 267 268 268 268 269 270 271 273 274 274 275 276 278 280 282 283 285 286 285 283 280 276 273 270 266 264 263 263 261 259
251 253 254 254 255 255 255 253 253 254 257 260 261 261 262 263 264 265 266 268 269 270 272 275 279 283 286 287 287 288 289 289 287 285 281 273 266 266 264 263 261 260 258
252 252 255 256 256 255 255 255 255 257 258 259 259 259 260 261 263 265 268 270 273 277 282 286 289 291 292 292 291 290 289 289 289 287 285 280 271 263 256 258 258 257 258
253 251 251 250 249 249 251 253 256 258 259 257 257 257 259 261 264 268 272 276 279 282 285 289 292 293 292 292 293 295 298 298 295 291 288 284 282 276 266 253 250 255 255
250 248 249 249 249 249 250 251 251 251 251 252 253 255 258 262 265 268 271 275 278 282 286 289 291 292 294 296 298 300 301 300 299 297 294 289 286 284 279 271 258 253 250
253 253 250 248 247 246 247 249 249 248 248 249 251 254 259 263 268 273 279 284 290 293 295 297 299 300 300 302 303 303 301 299 297 296 295 294 294 291 287 281 277 267 257
248 247 245 244 244 244 246 247 248 248 248 249 253 258 264 270 276 281 286 291 295 299 300 302 304 303 303 303 300 297 295 294 293 292 292 292 293 293 293 291 289 285 274
248 241 237 235 236 238 240 243 245 245 248 252 257 263 269 275 280 285 289 293 296 298 299 301 301 299 297 293 292 289 288 286 286 286 286 287 289 291 291 291 291 289 286
241 240 236 235 236 238 242 243 242 243 248 254 261 268 274 279 285 291 293 295 297 297 299 298 295 291 288 287 286 284 282 281 280 279 279 281 282 283 284 287 289 292 293
240 235 234 234 236 240 241 240 242 247 254 261 268 275 281 286 289 293 295 296 296 296 294 292 290 288 285 283 281 280 278 277 275 274 273 273 275 274 274 278 282 286 291
244 239 237 237 239 241 242 244 249 254 262 270 277 285 289 292 294 295 295 293 291 291 290 288 286 285 283 280 278 277 275 273 273 274 273 270 269 268 268 272 277 281 286
248 236 234 235 237 240 244 248 255 263 271 279 285 289 292 293 292 290 289 290 289 287 287 285 284 282 280 278 277 275 275 275 274 272 270 270 268 266 267 269 273 279 285
239 237 235 237 240 244 250 257 267 277 283 288 289 289 288 287 288 288 287 287 286 285 284 284 284 282 280 278 275 274 274 272 271 269 268 267 266 265 267 269 274 279 283
243 238 240 244 248 254 264 272 280 284 285 284 284 286 288 288 287 285 284 284 284 285 285 284 284 282 280 278 276 273 271 272 270 268 267 266 266 266 267 271 275 280 284
244 244 247 252 260 271 277 279 279 281 284 286 288 288 286 284 284 284 283 283 284 283 281 280 282 283 282 280 276 274 272 270 269 267 266 265 266 267 269 273 277 281 286
256 260 268 272 275 276 278 281 285 286 287 288 287 285 285 284 283 282 282 283 282 280 280 281 281 281 283 281 278 275 272 269 268 267 266 265 266 267 270 275 279 283 288
272 273 275 277 280 283 284 287 287 287 287 287 287 287 286 285 284 283 282 282 281 280 279 280 280 280 280 279 277 274 273 270 269 268 267 266 267 270 273 276 280 283 284
276 279 282 283 284 285 287 287 286 286 286 286 287 287 285 284 283 283 283 282 281 279 279 279 279 279 278 276 274 273 272 271 269 268 269 270 270 271 275 279 281 282 282
280 282 284 284 283 285 286 284 284 286 287 290 289 286 284 284 284 284 283 282 281 280 279 278 277 277 276 275 273 272 271 271 270 269 269 270 271 273 278 281 282 282 281
283 283 282 281 281 283 283 283 285 285 288 290 287 286 287 288 287 285 283 282 280 279 278 277 277 275 274 272 272 271 270 270 271 270 270 272 274 275 278 280 281 281 283
284 283 282 282 284 285 285 285 286 288 289 285 285 285 287 287 286 284 283 281 279 278 278 277 276 275 274 272 271 271 271 271 271 270 271 272 274 278 278 279 280 281 286
286 284 284 284 285 285 285 285 285 287 283 283 283 285 285 284 284 284 283 281 279 277 276 276 275 275 273 272 271 271 270 271 272 273 274 275 277 278 281 282 283 280 277
290 289 287 286 288 289 288 287 291 288 287 285 285 285 284 283 282 282 283 281 279 278 277 275 275 274 273 271 271 270 270 271 272 274 275 277 279 280 281 281 278 277 269
293 292 290 290 289 289 287 289 290 288 288 288 286 284 282 280 279 280 280 280 279 277 275 275 275 275 271 269 269 268 269 272 276 279 280 284 281 279 275 272 270 269 271
291 290 290 290 289 289 288 289 288 287 287 286 287 286 283 281 280 279 278 279 278 276 274 274 274 273 271 269 269 269 270 272 285 284 283 276 274 274 273 273 274 275 277
291 290 290 289 289 288 288 289 288 286 285 287 290 289 285 281 279 278 275 278 281 276 273 274 273 270 268 265 262 262 267 266 267 270 272 274 276 280 281 280 280 280 281